Location: Rotheul
(50.2849°N, 11.2349°E)
Time: 03:45:24
(UTC+01:00)

Envisat - Pass Details

Date: 21 October 2019
Orbit: 764 x 766 km, 98.1° (Epoch: 18 November)

Event Time Altitude Azimuth Distance (km) Brightness Sun altitude
Rises 20:33:45 0° 209° (SSW) 3,223 6.5 -23.2°
Reaches altitude 10° 20:36:45 10° 228° (SW) 2,302 5.9 -23.7°
Maximum altitude 20:40:13 18° 271° (W) 1,799 5.8 -24.2°
Drops below altitude 10° 20:43:42 10° 315° (NW) 2,314 6.2 -24.8°
Sets 20:46:45 0° 334° (NNW) 3,245 6.8 -25.3°
